"Pseudo-MPEC" for C15ZKA5

Created 2025 Oct 7 13:35:06 UT using Find_Orb

Click here for an explanation of pseudo-MPECs

 
 Astrometry: 
     C15ZKA5* C2025 10 03.33802001 17 15.659+42 47 12.30   ~A395 21.49GVNEOCPV00
     C15ZKA5* C2025 10 03.34239901 17 15.320+42 47 10.93   ~A3A5 21.64GVNEOCPV00
     C15ZKA5  C2025 10 03.34364301 17 15.241+42 47 10.64   ~A395 21.74GVNEOCPV00
     C15ZKA5  C2025 10 03.34799201 17 14.892+42 47 09.53   ~A3A5 21.61GVNEOCPV00
     C15ZKA5  C2025 10 03.34923901 17 14.809+42 47 09.17   ~A395 21.50GVNEOCPV00
     C15ZKA5  C2025 10 03.35359101 17 14.464+42 47 07.94   ~A3A5 21.72GVNEOCPV00
     C15ZKA5  C2025 10 03.35483601 17 14.381+42 47 07.84   ~A395 21.42GVNEOCPV00
     C15ZKA5  C2025 10 03.35918801 17 14.060+42 47 06.50   ~A3A5 21.45GVNEOCPV00
     C15ZKA5 KC2025 10 03.41500401 17 09.823+42 46 50.95   ~A3Ao 21.59GVNEOCPV06
     C15ZKA5 KC2025 10 03.41707101 17 09.658+42 46 50.45   ~A3Ao 21.48GVNEOCPV06
     C15ZKA5 KC2025 10 03.42381301 17 09.157+42 46 48.65   ~A3Ao 21.20GVNEOCPV06
     C15ZKA5 KC2025 10 03.42588001 17 09.013+42 46 48.04   ~A3Ao 21.15GVNEOCPV06
     C15ZKA5 KC2025 10 04.23154601 16 11.183+42 43 00.91   ~A46Z 21.36GVNEOCPV06
     C15ZKA5 KC2025 10 04.23465501 16 10.81 +42 42 59.3    ~A46K 22.0 GVNEOCPH21
     C15ZKA5 KC2025 10 04.23528501 16 10.916+42 42 59.94   ~A46Z 21.26GVNEOCPV06
     C15ZKA5 KC2025 10 04.23767101 16 10.52 +42 42 59.1    ~A46K 21.6 GVNEOCPH21
     C15ZKA5 KC2025 10 04.23902301 16 10.636+42 42 58.97   ~A46Z 21.07GVNEOCPV06
     C15ZKA5 KC2025 10 04.24276001 16 10.358+42 42 57.89   ~A46Z 21.41GVNEOCPV06
     C15ZKA5 6C2025 10 06.00039801 14 00.356+42 33 26.01   ~A6D5 21.2 GVNEOCPZ84
     C15ZKA5 6C2025 10 06.03037201 13 57.983+42 33 15.36   ~A6D5 21.1 GVNEOCPZ84

Station data:
(H21) Astronomical Research Observatory, Westfield  (N39.483054 W87.968270)
   US/Illinois.  Observer R. Holmes. Measurers S. Foglia, L. Buzzi, T.
   Linder, R. Holmes. 0.40-m f/5.32 astrograph + CCD.
(V00) Kitt Peak-Bok  (N31.963125 W111.600190)  US/Arizona. Measurers T.
   Beuden, V. F. Carvajal, D. Fay, J. B. Fazekas, D. C. Fuls, A. R. Gibbs, A.
   D. Grauer, H. Gröller, J. K. Hogan, R. A. Kowalski, S. M. Larson, G. J.
   Leonard, D. Rankin, R. L. Seaman, F. C. Shelly, K. W. Wierzchoś. 2.25-m
   reflector + 4x4K mosaic CCD.
(V06) Catalina Sky Survey-Kuiper  (N32.416871 W110.732550)  US/Arizona.
   Measurers T. Beuden, V. F. Carvajal, D. Fay, J. B. Fazekas, D. C. Fuls, A.
   R. Gibbs, A. D. Grauer, H. Gröller, J. K. Hogan, R. A. Kowalski, S. M.
   Larson, G. J. Leonard, D. Rankin, R. L. Seaman, F. C. Shelly, K. W.
   Wierzchoś. 1.55-m reflector + CCD.
(Z84) Calar Alto-Schmidt  (N37.224006 W2.548160)  Spain.  Observer R. Kresken.
    Measurers F. Ocaña, M. Micheli, R. Kresken. 0.8-m f/3 Schmidt + CCD.

Orbital elements:  C15ZKA5
   Perihelion 2026 Oct 30.056106 +/- 28.9 TT =  1:20:47.5 (JD 2461343.556106)
Epoch 2025 Oct  6.0 TT = JDT 2460954.5   Earth MOID: 0.7516      AutoNEOCP
M 208.541661615 +/- 11              (J2000 ecliptic)
n   0.389296906 +/- 0.00164         Peri.  276.413882 +/- 7
a   1.857585222 +/- 0.00521         Node   262.245314 +/- 1.0
e   0.10679640 +/- 0.017            Incl.   20.126626 +/- 0.34
P   2.532/924.727d         H 18.92  G  0.15   U  8.6
q 1.659201803 +/- 0.0312    Q 2.055968641 +/- 0.0328
From 20 observations 2025 Oct. 3-6; mean residual 0".17
Residuals in arcseconds: 
251003 V00  .09+  .07+    251003 V00  .12+  .04-    251004 V06  .20-  .08+    
251003 V00  .01+  .13-    251003 V06  .07-  .05-    251004 H21  .10-  .24+    
251003 V00  .18+  .09-    251003 V06  .18-  .03+    251004 V06  .15-  .16+    
251003 V00  .04-  .03-    251003 V06  .12-  .14+    251004 V06  .07-  .13+    
251003 V00  .08+  .05-    251003 V06  .01+  .12+    251006 Z84  .18+  .00     
251003 V00  .09-  .11-    251004 V06  .39-  .00     251006 Z84  .17-  .01-    
251003 V00  .03+  .12+    251004 H21  .56+  .44-    

Ephemerides (geocentric):
Date (UTC) HH   RA             Dec           delta  r     elong  mag " sig PA
---- --------  ------------   ------------  ------ ------ -----  --- --------
2025 10 07 14  01 12 01.166   +42 23 21.19  1.1465 2.0352 143.0 21.7 1.08 145
2025 10 07 15  01 11 58.007   +42 23 04.14  1.1463 2.0352 143.0 21.7 1.12 145
2025 10 07 16  01 11 54.847   +42 22 47.03  1.1462 2.0352 143.0 21.7 1.15 145
2025 10 07 17  01 11 51.686   +42 22 29.87  1.1460 2.0352 143.0 21.7 1.19 145
2025 10 07 18  01 11 48.524   +42 22 12.64  1.1458 2.0351 143.1 21.7 1.23 145
2025 10 07 19  01 11 45.360   +42 21 55.36  1.1457 2.0351 143.1 21.7 1.27 145
2025 10 07 20  01 11 42.196   +42 21 38.02  1.1455 2.0351 143.1 21.7 1.31 144
2025 10 07 21  01 11 39.030   +42 21 20.61  1.1453 2.0351 143.1 21.7 1.34 144
2025 10 07 22  01 11 35.864   +42 21 03.15  1.1451 2.0350 143.2 21.7 1.38 144
2025 10 07 23  01 11 32.696   +42 20 45.63  1.1450 2.0350 143.2 21.7 1.42 144
2025 10 08 00  01 11 29.528   +42 20 28.06  1.1448 2.0350 143.2 21.7 1.46 144
2025 10 08 01  01 11 26.358   +42 20 10.42  1.1446 2.0350 143.2 21.7 1.51 144
2025 10 08 02  01 11 23.188   +42 19 52.72  1.1445 2.0350 143.3 21.7 1.55 144
2025 10 08 03  01 11 20.016   +42 19 34.97  1.1443 2.0349 143.3 21.7 1.59 144
2025 10 08 04  01 11 16.844   +42 19 17.15  1.1441 2.0349 143.3 21.7 1.63 143
2025 10 08 05  01 11 13.670   +42 18 59.28  1.1440 2.0349 143.3 21.7 1.68 143
2025 10 08 06  01 11 10.495   +42 18 41.35  1.1438 2.0349 143.4 21.7 1.72 143
2025 10 08 07  01 11 07.320   +42 18 23.36  1.1436 2.0348 143.4 21.7 1.76 143
2025 10 08 08  01 11 04.144   +42 18 05.31  1.1435 2.0348 143.4 21.7 1.81 143
2025 10 08 09  01 11 00.966   +42 17 47.20  1.1433 2.0348 143.4 21.7 1.85 143
2025 10 08 10  01 10 57.788   +42 17 29.03  1.1431 2.0348 143.5 21.6 1.90 143
2025 10 08 11  01 10 54.609   +42 17 10.81  1.1430 2.0347 143.5 21.6 1.95 143
2025 10 08 12  01 10 51.429   +42 16 52.52  1.1428 2.0347 143.5 21.6 1.99 143
2025 10 08 13  01 10 48.248   +42 16 34.18  1.1426 2.0347 143.5 21.6 2.04 142
2025 10 08 14  01 10 45.066   +42 16 15.77  1.1425 2.0347 143.6 21.6 2.09 142
2025 10 08 15  01 10 41.883   +42 15 57.31  1.1423 2.0347 143.6 21.6 2.14 142
2025 10 08 16  01 10 38.699   +42 15 38.79  1.1421 2.0346 143.6 21.6 2.19 142
2025 10 08 17  01 10 35.515   +42 15 20.21  1.1420 2.0346 143.6 21.6 2.24 142
2025 10 08 18  01 10 32.329   +42 15 01.57  1.1418 2.0346 143.7 21.6 2.29 142
2025 10 08 19  01 10 29.143   +42 14 42.87  1.1416 2.0346 143.7 21.6 2.34 142
2025 10 08 20  01 10 25.956   +42 14 24.12  1.1415 2.0345 143.7 21.6 2.39 142
2025 10 08 21  01 10 22.768   +42 14 05.30  1.1413 2.0345 143.7 21.6 2.44 142
2025 10 08 22  01 10 19.579   +42 13 46.43  1.1412 2.0345 143.8 21.6 2.49 142
2025 10 08 23  01 10 16.390   +42 13 27.49  1.1410 2.0345 143.8 21.6 2.54 142
2025 10 09 00  01 10 13.199   +42 13 08.50  1.1408 2.0344 143.8 21.6 2.60 141
2025 10 09 01  01 10 10.008   +42 12 49.45  1.1407 2.0344 143.8 21.6 2.65 141
2025 10 09 02  01 10 06.816   +42 12 30.34  1.1405 2.0344 143.9 21.6 2.70 141
2025 10 09 03  01 10 03.623   +42 12 11.17  1.1404 2.0344 143.9 21.6 2.76 141
2025 10 09 04  01 10 00.430   +42 11 51.94  1.1402 2.0344 143.9 21.6 2.81 141
2025 10 09 05  01 09 57.236   +42 11 32.65  1.1400 2.0343 143.9 21.6 2.87 141
2025 10 09 06  01 09 54.041   +42 11 13.31  1.1399 2.0343 144.0 21.6 2.93 141
2025 10 09 07  01 09 50.845   +42 10 53.90  1.1397 2.0343 144.0 21.6 2.98 141
2025 10 09 08  01 09 47.649   +42 10 34.44  1.1396 2.0343 144.0 21.6 3.04 141
2025 10 09 09  01 09 44.451   +42 10 14.92  1.1394 2.0342 144.0 21.6 3.10 141
2025 10 09 10  01 09 41.254   +42 09 55.33  1.1392 2.0342 144.1 21.6 3.16 141
2025 10 09 11  01 09 38.055   +42 09 35.69  1.1391 2.0342 144.1 21.6 3.21 140
2025 10 09 12  01 09 34.856   +42 09 15.99  1.1389 2.0342 144.1 21.6 3.27 140
2025 10 09 13  01 09 31.656   +42 08 56.23  1.1388 2.0341 144.1 21.6 3.33 140